This demonstration page uses our WeatherBlox Daily Observations layout. Learn more.

Left ArrowRight Arrow

Hourly Observations for June 24, 2018

Temp ( °F °C ) Dew Point ( °F °C ) Humidity (%) Winds ( mph kmh ) Pressure ( in mb ) Visibility ( mi km ) Precip ( " mm )
12:57 am 00:57 Clear 67 19.4 62 16.7 84 84 ENE 9 15 29.78 1008 10 16 0.00 0.00
1:57 am 01:57 Mostly Cloudy with Nearby Thunderstorms 70 21.1 61 16.1 73 73 NW 12 19 29.82 1010 10 16 0.00 0.03
2:07 am 02:07 Mostly Cloudy with Nearby Thunderstorms 70 21 61 16 73 73 NW 12 19 29.80 1009 10 16 0.00 0.00
2:29 am 02:29 Cloudy with Light Rain 66 19 61 16 83 83 NW 17 28 29.80 1009 10 16 0.00 0.00
2:57 am 02:57 Cloudy with Light Rain 66 18.9 60 15.6 81 81 N 3 6 29.80 1009 10 16 0.11 2.79
3:57 am 03:57 Clear 63 17.2 60 15.6 90 90 ENE 6 9 29.71 1006 10 16 0.01 0.25
4:57 am 04:57 Clear 63 17.2 60 15.6 90 90 SSE 10 17 29.73 1007 10 16 0.00 0.00
5:57 am 05:57 Clear 66 18.9 60 15.6 81 81 S 6 9 29.75 1008 10 16 0.00 0.00
6:27 am 06:27 Mostly Sunny 66 19 57 14 73 73 W 21 33 29.83 1010 10 16 0.00 0.00
6:57 am 06:57 Cloudy 67 19.4 58 14.4 73 73 WNW 17 28 29.85 1011 10 16 0.00 0.00
7:57 am 07:57 Mostly Cloudy 67 19.4 59 15 76 76 NW 9 15 29.81 1010 10 16 0.00 0.00
8:57 am 08:57 Sunny 66 18.9 61 16.1 84 84 ENE 9 15 29.78 1009 10 16 0.00 0.00
9:57 am 09:57 Sunny 68 20 61 16.1 78 78 WNW 13 20 29.83 1010 10 16 0.00 0.00
10:57 am 10:57 Sunny 71 21.7 59 15 66 66 N 7 11 29.82 1010 10 16 0.00 0.00
11:57 am 11:57 Sunny 74 23.3 59 15 60 60 N 8 13 29.85 1011 10 16 0.00 0.00
12:57 pm 12:57 Mostly Sunny 77 25 58 14.4 52 52 N 12 19 29.87 1012 10 16 0.00 0.00
1:57 pm 13:57 Sunny 77 25 60 15.6 56 56 N 8 13 29.85 1011 10 16 0.00 0.00
2:57 pm 14:57 Sunny 77 25 58 14.4 52 52 NNW 7 11 29.85 1011 10 16 0.00 0.00
3:57 pm 15:57 Sunny 79 26.1 60 15.6 52 52 N 10 17 29.83 1010 10 16 0.00 0.00
4:57 pm 16:57 Sunny 80 26.7 59 15 49 49 NNE 7 11 29.84 1010 10 16 0.00 0.00
5:57 pm 17:57 Sunny 81 27.2 59 15 47 47 N 7 11 29.84 1011 10 16 0.00 0.00
6:57 pm 18:57 Sunny 79 26.1 61 16.1 54 54 N 6 9 29.84 1010 10 16 0.00 0.00
7:57 pm 19:57 Sunny 76 24.4 64 17.8 67 67 N 6 9 29.85 1011 10 16 0.00 0.00
8:57 pm 20:57 Sunny 68 20 58 14.4 70 70 NW 9 15 29.90 1013 10 16 0.00 0.00
9:57 pm 21:57 Partly Cloudy 68 20 61 16.1 78 78 WNW 16 26 29.94 1014 10 16 0.00 0.00
10:57 pm 22:57 Clear 67 19.4 61 16.1 81 81 WNW 14 22 29.93 1014 10 16 0.00 0.00
11:57 pm 23:57 Mostly Cloudy 65 18.3 58 14.4 78 78 WNW 10 17 29.91 1013 10 16 0.00 0.00

Powered by AerisWeather